Lapse_Rate
6.9 6.9 7.0 7.1 7.1 6.9 6.5 6.3 6.5 6.5 6.8 6.5 6.5 6.2 5.7 5.1 4.8 4.9 5.2 5.1 5.2 5.1 4.7 4.2 4.0 4.3 4.2 4.2 3.9 4.0 4.3 4.7 5.3 5.9 6.5 6.4 6.2 6.1 6.2 6.2 6.1 6.2 6.3
7.3 7.3 7.3 7.2 7.0 6.7 6.5 6.4 6.7 6.7 6.5 6.5 6.3 5.9 5.2 4.6 4.7 4.8 4.8 4.9 5.0 4.7 4.6 4.4 4.5 4.2 4.2 4.2 4.4 4.8 5.2 5.8 6.0 6.3 6.6 6.4 6.2 5.9 5.9 5.9 6.0 6.1 6.0
7.4 7.3 7.2 7.2 7.0 6.2 6.4 6.6 6.7 6.6 6.3 6.1 5.9 5.2 4.9 4.8 4.5 4.6 4.4 4.7 4.8 4.6 4.9 4.7 4.4 4.3 4.4 4.7 5.1 5.6 6.2 6.4 6.4 6.5 6.3 6.2 6.0 5.8 5.7 5.5 5.7 5.8 6.2
7.1 6.9 6.8 6.3 6.1 6.1 5.9 5.9 6.0 6.3 6.2 5.8 5.2 4.7 4.9 4.6 4.4 4.4 4.7 4.5 4.4 4.7 4.8 4.7 4.5 4.5 4.8 5.3 5.6 6.2 6.6 6.8 6.8 6.6 6.3 6.1 5.9 5.8 5.4 5.5 6.0 6.1 6.5
6.8 6.6 6.6 6.1 6.1 5.9 5.7 5.8 6.1 6.1 5.9 5.5 4.7 4.8 4.9 4.4 4.4 4.7 4.5 4.7 4.6 4.8 4.7 4.7 4.8 5.0 5.6 6.0 6.4 6.7 6.8 7.0 6.9 6.5 6.4 6.2 6.0 5.9 5.8 5.9 5.9 6.4 6.8
6.6 6.6 6.2 6.0 6.1 5.8 5.9 6.0 6.2 6.3 6.0 4.8 5.0 5.2 4.9 4.9 5.0 4.7 5.0 5.1 4.9 4.8 5.0 5.1 5.4 5.9 6.3 6.6 6.8 7.0 7.2 7.0 6.8 6.4 6.3 6.0 6.0 5.7 6.0 6.1 6.1 6.4 6.7
6.3 6.2 6.1 6.1 6.2 6.1 6.0 6.1 6.3 5.9 5.3 5.3 5.4 5.2 5.4 5.3 5.5 5.5 5.4 5.1 5.2 5.5 5.7 5.9 6.1 6.4 6.8 6.9 7.0 7.2 7.0 6.6 6.3 6.0 6.1 5.9 6.1 6.0 6.1 6.3 6.2 6.2 5.9
6.6 6.6 6.4 6.3 6.4 6.1 6.0 6.0 6.0 5.5 5.4 5.6 5.3 5.6 5.5 5.6 6.0 5.6 5.5 5.9 5.8 6.0 6.1 6.3 6.5 6.7 7.1 7.1 7.2 7.2 6.9 6.6 6.4 6.1 6.0 6.1 6.1 6.2 6.2 6.4 6.4 6.2 5.7
6.6 6.6 6.5 6.6 6.4 6.4 6.4 6.1 5.6 5.6 5.5 5.3 5.7 5.3 5.7 6.1 5.7 6.1 6.4 6.2 6.1 6.3 6.5 6.6 6.7 7.1 7.2 7.3 7.4 7.3 7.0 6.7 6.5 6.2 6.1 6.0 6.2 6.1 6.2 6.4 6.2 5.9 5.8
6.6 6.5 6.8 6.5 6.6 5.8 5.5 5.6 5.9 5.6 5.3 5.8 5.7 5.8 6.2 6.0 6.8 6.8 6.7 6.6 6.6 6.6 6.6 6.7 6.9 7.2 7.3 7.5 7.5 7.3 7.0 6.9 6.7 6.5 6.3 6.2 6.2 6.3 6.2 6.3 6.2 6.0 5.8
6.6 6.6 6.7 6.8 6.7 6.0 6.0 5.8 5.6 5.5 5.9 5.7 6.1 6.3 6.6 7.0 7.0 6.9 6.9 6.9 6.8 6.8 6.8 6.9 7.0 7.3 7.6 7.6 7.5 7.2 7.1 7.1 6.9 6.8 6.7 6.8 6.6 6.5 6.3 6.4 6.2 6.0 5.9
6.2 6.4 6.2 6.3 5.7 5.9 6.0 5.8 5.7 5.6 5.5 6.4 6.4 6.8 7.1 7.1 7.0 7.0 6.9 6.9 6.9 7.2 7.1 7.0 7.2 7.5 7.7 7.6 7.5 7.3 7.2 7.2 7.1 7.1 7.1 7.0 7.0 6.8 6.6 6.6 6.4 6.1 5.9
5.6 5.7 5.8 5.9 6.1 6.0 5.8 5.7 5.4 5.6 6.6 6.7 7.1 7.2 7.2 7.2 7.1 7.1 6.9 7.0 7.0 7.4 7.3 7.2 7.3 7.6 7.7 7.6 7.6 7.4 7.4 7.4 7.4 7.5 7.5 7.4 7.2 6.9 6.9 6.7 6.5 6.4 6.1
5.4 5.7 6.0 6.1 5.9 5.6 5.2 5.4 5.8 6.4 6.8 7.0 7.2 7.4 7.4 7.2 7.2 7.1 7.0 7.0 7.1 7.4 7.5 7.5 7.5 7.6 7.6 7.6 7.7 7.6 7.6 7.5 7.6 7.7 7.7 7.8 7.6 7.1 6.8 6.8 6.7 6.5 6.4
5.6 5.7 5.5 5.2 5.2 5.2 5.5 5.9 6.4 7.0 7.1 7.2 7.2 7.2 7.2 7.2 7.1 7.0 7.1 7.2 7.2 7.3 7.5 7.8 7.5 7.5 7.8 7.7 7.8 7.8 7.9 7.7 7.8 7.9 7.9 8.0 7.8 7.5 6.9 6.8 6.8 6.7 6.7
5.3 5.2 5.2 5.3 5.4 5.7 6.1 6.5 6.9 7.1 7.3 7.2 7.2 7.1 7.2 7.1 7.1 7.0 7.0 7.2 7.2 7.2 7.4 7.9 7.6 7.6 7.9 7.9 7.9 7.9 8.0 7.8 7.8 7.9 8.0 8.1 8.0 7.8 7.5 7.1 6.9 6.8 6.8
5.6 5.5 5.5 5.6 5.9 6.1 6.4 6.8 7.3 7.5 7.2 7.2 7.0 6.9 6.8 6.9 6.9 6.9 7.0 7.1 7.2 7.3 7.6 7.8 7.6 7.6 7.9 8.1 8.1 8.0 8.0 7.9 7.8 7.9 7.9 8.0 8.1 7.9 7.8 7.5 7.1 6.9 6.7
5.5 5.6 5.7 6.0 6.2 6.5 6.9 7.2 7.3 7.3 7.4 7.4 7.2 6.8 6.6 6.7 6.7 6.7 6.9 6.9 7.1 7.4 7.6 7.6 7.6 7.6 7.9 8.2 8.2 8.1 8.0 7.9 7.9 8.0 8.0 8.1 8.0 8.0 7.9 7.7 7.4 7.1 6.8
5.4 5.5 5.7 6.0 6.4 6.9 7.2 7.3 7.2 7.1 7.0 6.9 6.8 6.7 6.8 6.9 6.8 6.8 7.0 7.0 7.1 7.0 7.2 7.3 7.5 7.6 7.7 8.1 8.2 8.2 8.1 8.0 7.9 8.0 8.1 8.2 8.0 8.0 8.0 8.0 7.8 7.4 7.1
5.5 5.7 6.0 6.5 7.0 7.3 7.2 7.1 7.0 6.8 6.6 6.4 6.5 6.4 6.4 6.6 6.8 6.9 7.2 7.2 7.2 7.2 7.6 7.5 7.5 7.6 7.8 8.2 8.2 8.2 8.2 8.1 7.8 7.8 8.0 8.1 8.2 8.1 8.1 8.1 8.0 7.7 7.3
5.9 6.3 6.8 7.3 7.3 7.2 7.1 7.0 6.7 6.6 6.5 6.5 6.4 6.3 6.7 6.8 6.7 7.2 7.6 7.7 7.6 7.5 7.4 7.4 7.7 7.7 7.7 8.2 8.2 8.1 8.2 8.1 8.0 7.9 7.9 8.0 8.0 8.1 8.1 8.2 8.1 8.0 7.7
6.8 7.3 7.5 7.3 7.1 6.9 6.6 6.4 6.3 6.2 6.3 6.3 6.5 6.6 6.9 7.0 7.1 7.4 7.6 7.7 7.9 7.9 7.6 7.6 7.7 7.8 7.9 8.2 8.3 8.1 8.2 8.1 8.0 7.9 7.9 7.9 7.9 8.0 8.1 8.2 8.2 8.0 8.0
7.4 7.1 7.0 6.7 6.5 6.3 6.1 6.1 6.2 6.2 6.2 6.1 6.4 6.5 6.6 6.9 7.2 7.6 7.7 7.7 7.7 7.8 7.9 7.8 7.7 7.8 8.2 8.4 8.3 8.1 8.1 8.0 7.9 7.8 7.9 7.9 7.9 7.8 7.9 8.1 8.1 8.1 8.1
6.9 6.6 6.4 6.2 6.0 6.0 6.0 6.1 6.0 5.9 5.9 5.9 5.9 6.1 6.3 6.6 7.2 7.5 7.8 7.8 7.9 8.0 7.9 7.9 7.9 8.2 8.6 8.4 8.2 8.1 8.0 7.9 7.9 7.8 7.8 7.8 7.9 8.0 7.9 7.8 8.0 8.1 8.1
6.4 6.1 5.9 5.8 5.8 6.0 5.9 5.8 5.6 5.6 5.5 5.5 5.7 6.0 6.3 6.9 7.1 7.8 8.0 8.1 8.1 8.1 8.1 8.1 8.0 8.2 8.3 8.3 8.1 8.1 8.0 7.9 7.8 7.9 7.9 7.8 7.8 7.9 7.9 7.7 7.8 8.0 8.0
5.8 5.7 5.7 5.8 5.6 5.6 5.6 5.5 5.5 5.3 5.3 5.5 5.7 5.9 6.0 6.4 7.1 7.8 8.1 8.2 8.1 8.2 8.2 8.1 8.0 8.1 8.1 8.1 8.1 8.0 8.0 7.9 7.8 7.8 7.8 7.9 7.8 7.9 7.8 7.6 7.6 7.8 8.0
Wind_Speed
13 10 11 10 9 8 8 8 7 6 6 4 3 1 1 2 2 3 2 2 4 4 3 4 3 2 2 0 1 1 1 1 2 3 2 4 5 7 14 16 17 16 15
15 13 12 11 10 8 8 7 8 7 7 6 4 2 2 3 4 4 3 3 5 5 5 4 4 2 1 2 2 1 1 1 2 5 2 4 4 8 11 8 14 15 14
13 11 10 10 9 10 9 9 7 7 6 6 5 4 5 4 5 5 5 6 5 5 5 3 2 2 2 2 3 3 2 1 2 2 5 3 4 4 7 7 6 10 13
12 11 11 11 11 9 9 8 7 6 6 6 5 6 5 5 6 6 6 6 6 5 4 4 4 5 5 5 4 3 2 3 2 3 5 7 5 7 4 5 6 5 8
12 11 12 12 10 8 7 7 6 6 5 5 6 6 6 5 5 7 6 6 6 5 3 3 4 5 9 6 3 2 2 1 3 4 5 6 6 5 6 5 7 7 9
12 12 12 8 8 8 7 7 5 2 1 5 8 6 7 5 9 12 8 6 6 5 4 2 2 2 6 8 6 4 2 1 3 2 4 6 4 6 5 6 7 7 6
9 10 8 11 11 8 7 6 5 5 5 8 8 8 7 6 10 12 11 5 4 3 3 3 3 2 5 4 3 2 2 5 6 4 5 3 7 7 7 8 8 7 8
8 9 10 10 9 8 7 6 5 3 4 5 6 6 6 5 10 11 12 7 5 5 5 5 5 5 5 5 4 2 3 4 4 5 5 6 6 9 7 8 9 8 6
11 10 10 12 11 7 7 5 3 5 5 4 4 6 5 5 12 12 9 5 5 5 4 4 4 4 8 8 3 3 4 5 8 10 13 17 18 18 16 5 5 6 8
10 11 11 8 8 4 4 3 3 4 4 4 5 6 6 6 11 12 9 3 5 3 4 5 5 5 11 8 4 3 4 6 5 6 6 11 14 14 15 7 4 6 6
11 9 8 5 4 2 2 5 4 3 4 5 6 6 6 6 9 15 14 5 5 4 4 3 3 9 11 8 7 4 5 5 7 6 6 5 5 5 6 9 9 5 6
7 5 4 2 0 3 2 2 4 4 4 5 5 6 3 5 10 16 16 13 10 5 5 4 4 10 11 11 7 9 12 6 3 4 4 5 5 5 5 9 12 12 12
4 4 2 1 3 4 4 5 4 4 3 4 3 3 4 4 5 14 17 17 15 6 5 8 10 11 12 8 11 13 8 3 3 1 5 3 3 4 8 6 12 13 13
2 1 3 4 5 5 4 4 4 3 4 4 4 3 4 3 5 5 6 8 11 8 7 6 5 5 5 5 3 7 4 4 4 4 3 2 2 2 2 2 4 6 5
3 3 4 3 5 5 5 4 4 5 5 5 5 4 4 5 6 11 11 7 8 9 3 1 1 2 3 3 3 4 4 3 3 2 2 2 2 2 2 3 2 5 2
4 4 3 3 4 4 5 6 9 13 13 16 16 8 4 13 12 14 16 19 18 13 3 3 5 5 6 6 5 4 3 4 3 3 2 2 2 2 2 2 2 2 4
5 6 4 4 5 5 5 5 8 7 10 12 13 13 15 17 16 16 16 18 19 13 5 8 7 7 7 6 6 5 4 4 4 4 3 3 3 2 1 2 2 2 4
6 6 5 6 6 7 7 8 7 9 10 8 11 16 17 19 18 18 17 15 6 10 7 8 8 7 7 7 6 5 5 3 4 4 4 3 3 3 1 2 2 2 3
7 6 7 6 6 8 8 9 9 10 11 11 9 6 11 21 18 16 17 9 9 9 9 9 9 8 8 7 6 6 6 5 5 4 4 4 3 3 3 3 2 3 3
7 8 7 7 8 9 8 10 11 11 12 11 11 11 8 3 5 6 5 8 9 9 8 9 9 8 8 8 7 7 6 5 5 6 5 4 4 3 3 3 2 1 2
7 8 9 7 7 8 9 10 10 11 11 11 12 9 10 9 9 7 7 7 8 8 9 9 8 8 8 8 7 7 7 6 7 7 6 5 4 3 4 3 3 2 2
7 7 7 8 8 8 9 9 11 13 12 12 12 12 19 12 8 8 8 8 7 8 8 9 9 9 9 9 8 8 8 8 7 7 7 6 5 5 4 3 2 2 1
7 9 8 8 8 11 9 9 10 10 12 14 13 11 10 9 11 9 8 6 6 5 7 8 9 8 9 8 11 8 8 8 8 8 8 7 6 5 4 3 3 2 2
6 7 8 8 8 9 9 9 9 12 11 11 12 12 13 13 5 4 3 3 2 4 5 4 5 8 6 7 10 13 13 12 11 11 11 8 8 7 4 3 3 4 3
5 3 6 7 7 8 9 9 9 10 10 10 10 11 11 13 13 12 10 8 7 6 6 5 5 7 9 9 2 6 9 14 15 14 13 9 10 11 8 4 3 3 3
5 5 3 5 7 8 8 8 9 9 9 9 9 9 9 9 9 9 9 9 8 7 6 4 7 9 10 8 9 12 12 10 11 18 15 7 8 8 7 7 8 4 4
Wind_Direction
166 168 154 155 153 153 152 152 153 151 141 136 137 147 279 325 325 141 196 165 153 133 142 169 188 174 202 54 99 100 126 150 251 283 259 295 298 299 307 311 314 311 314
170 163 161 158 161 157 156 161 156 166 158 165 167 216 267 287 213 215 240 154 180 189 193 192 220 216 268 143 168 176 210 225 203 279 296 305 285 294 293 307 313 317 318
161 161 161 163 166 167 167 164 173 162 163 174 178 222 251 250 225 230 191 158 180 197 190 201 264 207 205 207 227 230 225 238 227 245 295 286 281 290 303 303 295 306 311
163 166 167 174 176 172 170 168 160 160 170 197 210 229 240 242 219 195 164 171 179 174 174 179 182 183 208 226 230 228 242 264 275 290 294 295 292 298 278 295 304 303 301
169 171 179 179 178 158 135 143 140 166 198 217 236 247 241 230 223 201 187 184 181 186 183 164 182 215 230 197 176 210 206 280 304 300 296 297 308 316 318 306 299 300 300
175 180 178 162 124 120 127 136 118 150 198 253 255 250 242 238 215 196 177 182 186 185 194 194 220 174 157 156 136 144 151 277 278 259 295 295 296 305 295 297 297 306 313
168 166 140 130 127 129 114 86 55 7 283 277 281 260 247 232 213 184 168 164 157 210 225 198 237 174 172 186 190 230 329 330 307 277 282 263 302 299 298 299 293 288 285
101 110 116 114 111 97 88 83 51 267 282 277 289 285 264 239 186 169 163 169 178 187 203 205 217 213 211 207 210 296 313 302 290 289 277 286 278 288 278 289 289 292 281
120 117 124 129 120 103 95 70 293 310 293 287 281 294 263 224 180 176 160 154 176 209 214 221 223 218 219 212 218 292 301 295 303 296 301 306 311 315 317 318 317 321 313
88 102 96 69 69 75 85 317 272 237 273 295 299 291 250 205 189 183 177 165 174 200 226 220 235 202 201 212 209 243 282 284 287 292 291 300 305 302 315 307 295 303 305
93 83 85 105 134 113 263 245 237 280 295 294 294 275 242 203 196 198 191 183 190 195 210 211 209 208 211 229 257 213 230 259 277 278 278 292 291 288 296 295 283 276 293
106 110 123 112 263 252 252 273 266 279 306 294 304 290 236 212 210 209 206 201 197 192 206 211 209 218 225 248 274 268 274 269 248 261 279 289 287 291 295 299 296 288 275
117 114 102 282 271 265 262 272 277 277 250 262 260 275 270 236 222 222 218 215 209 204 206 211 212 222 236 256 267 279 282 257 249 256 268 264 246 273 299 307 307 302 296
91 231 271 279 285 277 268 257 259 260 257 245 254 254 254 241 228 232 229 229 220 215 222 219 200 200 217 235 266 274 251 232 232 234 234 237 274 291 293 293 305 315 304
310 300 295 284 291 288 273 259 257 246 217 231 238 223 229 246 237 223 211 211 216 217 154 99 197 218 226 237 246 245 250 245 227 212 206 253 267 272 279 298 284 318 306
303 292 272 278 283 280 277 286 257 247 251 243 244 225 251 249 256 246 229 222 214 191 173 190 220 220 222 227 235 248 243 245 238 197 206 219 238 259 271 297 291 293 314
298 299 293 282 272 267 268 266 282 277 262 251 248 251 247 254 252 250 242 219 209 188 210 221 227 220 223 224 225 222 237 232 205 198 203 216 218 250 282 293 302 303 315
336 307 303 298 293 289 281 280 273 272 272 257 240 239 251 256 255 246 237 220 220 210 213 220 223 220 218 222 222 220 228 219 205 204 209 210 207 196 249 273 291 277 292
357 345 335 320 315 307 295 289 282 277 274 270 273 249 247 253 250 247 238 232 225 218 219 222 223 221 219 218 218 217 218 214 202 201 213 207 210 183 228 232 268 299 293
346 331 331 329 322 321 319 315 311 307 299 280 271 261 261 208 241 230 224 233 232 231 223 223 222 220 220 216 217 216 220 204 209 211 215 203 211 186 202 219 219 247 283
330 329 328 328 326 322 318 312 305 300 298 295 295 288 261 239 253 234 234 220 228 235 235 232 228 221 215 214 215 216 214 215 215 212 210 204 181 194 203 198 211 241 255
341 334 333 345 336 330 332 330 331 319 295 289 289 285 292 245 236 238 236 233 227 223 233 229 230 226 218 207 208 214 216 218 211 210 208 198 190 197 180 183 197 189 228
359 359 352 341 339 339 339 339 331 337 349 352 335 301 282 264 251 236 224 227 231 234 239 232 234 233 219 208 203 209 210 213 213 202 200 194 191 189 177 177 179 176 183
357 360 354 346 347 345 342 337 342 347 350 354 355 347 355 345 292 226 212 217 65 29 2 330 261 237 206 203 208 213 214 221 212 207 200 192 192 182 170 164 169 177 172
348 356 355 347 344 342 339 343 347 345 347 349 352 352 353 2 8 15 11 27 24 21 9 7 9 3 17 355 280 201 208 216 216 209 204 197 191 181 180 173 156 158 149
351 353 345 349 345 346 342 344 342 344 344 345 346 347 348 356 359 356 2 1 2 355 348 344 337 338 337 336 333 325 307 269 249 214 203 195 191 181 176 176 172 160 158